Regional Weather Roundup
Issued by NWS Cleveland, OH

Home | Current Version | Previous Version | Text Only | Print | Product List | Glossary Off
Versions: 1 2 3 4 5 6 7 8 9 10 11 12 13 14 15 16 17 18 19 20 21 22 23 24 25 26 27 28 29 30 31 32 33 34 35 36 37 38 39 40 41 42 43 44 45 46 47 48 49 50

000
ASUS41 KCLE 301902
RWRCLE
OHIO REGIONAL WEATHER ROUNDUP
NATIONAL WEATHER SERVICE CLEVELAND, OH
300 PM EDT SAT AUG 30 2014

NOTE: "FAIR" INDICATES FEW OR NO CLOUDS BELOW 12,000 FEET WITH NO
SIGNIFICANT WEATHER AND/OR OBSTRUCTIONS TO VISIBILITY.

OHZ001>008-015>018-024>027-034-035-043-044-302000-
   NORTHWEST OHIO

CITY           SKY/WX    TMP DP  RH WIND       PRES   REMARKS
DEFIANCE       CLOUDY    83  68  60 S16G23    29.95F
FINDLAY        PTSUNNY   85  67  54 S21G30    29.98S
TOLEDO EXPRESS PTSUNNY   84  66  54 SW18G24   29.94F
TOLEDO EXEC    MOSUNNY   85  66  53 SW22G28   29.96S
LIMA           PTSUNNY   83  69  62 SW18G24   30.00F
$$

OHZ009>014-019>023-028>033-038-089-302000-
   NORTHEAST OHIO

CITY           SKY/WX    TMP DP  RH WIND       PRES   REMARKS
CLE-HOPKINS    PTSUNNY   87  65  47 SW16G29   30.01S
CLE-LAKEFRONT  MOSUNNY   89  62  40 S21G29    29.97S
CUY CO. ARPT   PTSUNNY   90  66  45 SW21      30.00F HX  92
LORAIN-ELYRIA  MOSUNNY   91  65  41 SW18      29.99F HX  93
ASHTABULA      PTSUNNY   86  67  52 SW15      30.02F
AKRON-CANTON   PTSUNNY   88  64  44 SW13G21   30.04F
WOOSTER        MOSUNNY   85  67  54 SW13G22   30.04F
MANSFIELD      PTSUNNY   86  63  45 SW17G29   30.03F
YOUNGSTOWN     PTSUNNY   87  67  51 SW13G20   30.05F HX  90
$$

OHZ042-051>053-060>062-070>072-077>081-302000-
  SOUTHWEST OHIO

CITY           SKY/WX    TMP DP  RH WIND       PRES   REMARKS
CINC-COVINGTON PTSUNNY   85  66  53 SW7       30.06S
CINC-LUNKEN    MOSUNNY   87  66  49 SW13      30.04F
HAMILTON       MOSUNNY   86  69  56 W8        30.05S HX  90
DAYTON         CLOUDY    79  68  69 SW12      30.07R
WRIGHT-PAT AFB DRIZZLE   82  69  63 SW12      30.05S
DAYTON GENERAL CLOUDY    82  67  60 W9        30.05S
WILMINGTON     MOSUNNY   87  66  49 SW13      30.05F
$$

OHZ036-037-039>041-045>050-054>059-063>069-073>076-082>088-302000-
  CENTRAL AND SOUTHEAST OHIO

CITY           SKY/WX    TMP DP  RH WIND       PRES   REMARKS
COLUMBUS       PTSUNNY   93  63  36 SW17G25   30.03F HX  94
OSU AIRPORT    MOSUNNY   89  64  43 SW17      30.03F HX  90
BOLTON FIELD   MOSUNNY   88  70  55 SW15      30.04F HX  92
RICKENBACK AFB NOT AVBL
NEWARK         MOSUNNY   86  67  52 SW9       30.03F
MARION         PTSUNNY   85  64  49 SW16G26   30.02F
LANCASTER      PTSUNNY   87  64  46 SW10      30.05F
ZANESVILLE     MOSUNNY   88  64  44 SW9G20    30.05F
NEW PHILLY     PTSUNNY   85  69  58 S7        30.05F
$$


USA.gov is the U.S. government's official web portal to all federal, state and local government web resources and services.